{"data":{"norad_id":46053,"intl_designator":"2020-055AC","name":"STARLINK-1543","alt_names":[],"object_type":"PAYLOAD","status":"ACTIVE","operator":null,"country":"US","launch_date":"2020-08-07","launch_site_code":"AFETR","launch_vehicle":null,"mission":null,"orbit_class":"UNKNOWN","rcs_meters":null,"size_class":null,"mass_kg":null,"dimensions":null,"purposes":["comms"],"wikipedia_slug":null,"has_3d_model":false,"image_url":null,"decayed_at":null,"tle_current":{"epoch":"2026-05-25T04:41:04.569792Z","epoch_age_seconds":51397,"freshness":"FRESH","line1":"1 46053U 20055AC  26145.19519178  .00000248  00000+0  19749-4 0  9996","line2":"2 46053  53.1589 118.1872 0001234  85.3237 274.7905 15.31701224320798","mean_motion":15.31701224,"eccentricity":0.0001234,"inclination_deg":53.1589,"raan_deg":118.1872,"arg_perigee_deg":85.3237,"mean_anomaly_deg":274.7905,"bstar":1.9749e-5,"rev_number":32079,"period_min":94.013112834073,"perigee_km":469.89119557681,"apogee_km":471.58149751873,"semimajor_km":6848.8733465478,"source":"CELESTRAK","updated_at":"2026-05-25T13:38:16.461544Z"}}}